[[{"header":{"parameterUnit":"m.s-1","parameterCategory":1,"la1":30.2992,"la2":30.254,"lo1":-89.0895,"lo2":-89.0443,"dy":0.0025,"dx":0.0025,"nx":19,"ny":19,"refTime":"2026-04-07T09:00:00:Z","depth":0,"parameterNumber":2,"parameterNumberName":"U-component_of_WINDS"},"data":[0,0,0,-6.3038,-6.3044,-6.3324,-6.3325,-6.3746,-6.375,0,0,0,0,0,0,0,0,0,0,0,-6.299,-6.2994,-6.3037,-6.3045,-6.3324,-6.3325,-6.3745,-6.375,0,0,0,0,0,0,0,0,0,0,0,-6.2988,-6.2993,-6.2998,-6.3046,-6.3324,-6.3325,-6.3744,-6.3512,0,0,0,0,0,0,0,0,0,0,-6.323,-6.3219,-6.2992,-6.2998,-6.3048,-6.3323,-6.3325,-6.3499,-6.3526,-6.3646,0,-6.3757,0,-6.3761,-6.3782,-6.3784,0,0,0,-6.302,-6.3197,-6.324,-6.2999,-6.3051,-6.3323,-6.3191,-6.3514,-6.3544,-6.3681,-6.3763,-6.3777,-6.3768,-6.3785,-6.3787,-6.4552,-6.4556,0,0,-6.3005,-6.306,-6.3219,-6.3261,-6.3218,-6.3182,-6.32,-6.3531,-6.3625,-6.3764,-6.3786,-6.3775,-6.3788,-6.3792,-6.4547,-6.4553,0,0,0,-6.2977,-6.3051,-6.3084,-6.3246,-6.3291,-6.3191,-6.3211,-6.361,-6.3616,-6.379,-6.378,-6.3791,-6.3797,-6.4542,-6.4549,-6.4839,0,0,0,-6.2967,-6.3034,-6.3079,-6.3116,-6.3286,-6.3454,-6.3285,-6.3594,-6.3629,-6.3777,-6.3791,-6.3802,-6.4537,-6.4546,-6.482,-6.4969,0,0,0,-6.296,-6.3033,-6.3085,-6.3118,-6.3239,-6.3447,-6.3471,-6.36,-6.3625,-6.3784,-6.3803,-6.4533,-6.4544,-6.4803,-6.4941,-6.519,0,0,0,-6.297,-6.3339,-6.309,-6.3499,-6.3238,-6.3621,-6.3468,-6.3752,-6.3923,-6.3794,-6.4537,-6.4549,-6.4797,-6.4923,-6.5172,-6.5412,-6.5516,0,0,-6.3467,-6.3401,-6.3637,-6.3422,-6.3865,-6.3574,-6.406,-6.4166,-6.4132,-6.4415,-6.4433,-6.4826,-6.4939,-6.5186,-6.6071,-6.6154,0,0,0,-6.3813,-6.3984,-6.4089,-6.4253,-6.434,-6.4429,-6.4452,-6.4492,-6.4729,-6.4287,-6.4979,-6.5044,-6.5187,-6.53,-6.5371,-6.5492,-6.4602,-6.46,-6.4599,-6.4601,-6.4534,-6.4921,-6.4889,-6.505,-6.507,-6.5197,-6.5253,-6.514,-6.5305,-6.5391,-6.5936,-6.607,-6.6122,-6.625,-6.5508,-6.5509,-6.551,-6.5511,-6.5328,-6.5561,-6.5399,-6.5717,-6.5646,-6.5913,-6.5948,-6.5859,-6.6101,-6.5865,-6.5988,-6.5742,-6.6216,-6.6324,-6.5532,-6.5528,-6.5526,-6.5523,-6.5522,-6.5841,-6.5941,-6.5979,-6.6209,-6.6395,-6.6349,-6.6589,-6.6514,-6.6446,-6.6567,-6.6652,-6.6647,-6.6638,-6.6611,-6.6613,-6.6615,-6.6617,-6.6618,-6.6619,-6.6361,-6.6394,-6.6603,-6.6725,-6.6821,-6.6938,-6.6962,-6.7055,-6.7141,-6.7069,-6.7069,-6.6944,-6.6271,-6.6107,-6.6649,-6.6643,-6.664,-6.6637,-6.6635,-6.7132,-6.6945,-6.7269,-6.7365,-6.7503,-6.7695,-6.7594,-6.7792,-6.7858,-6.798,-6.7826,-6.7339,-6.7268,-6.7212,-6.7076,-6.7835,-6.7835,-6.7835,-6.7836,-6.757,-6.7523,-6.7838,-6.7997,-6.8144,-6.8085,-6.8459,-6.8481,-6.8476,-6.8514,-6.8391,-6.8203,-6.8148,-6.811,-6.8034,-6.7906,-6.886,-6.8861,-6.8862,-6.8043,-6.8007,-6.8338,-6.8325,-6.8428,-6.8519,-6.8869,-6.9062,-6.9016,-6.8902,-6.8544,-6.85,-6.8194,-6.8097,-6.7982,-6.7865,-6.7629,0,0]},{"header":{"parameterUnit":"m.s-1","parameterCategory":1,"la1":30.2992,"la2":30.254,"lo1":-89.0895,"lo2":-89.0443,"dy":0.0025,"dx":0.0025,"nx":19,"ny":19,"refTime":"2026-04-07T09:00:00:Z","depth":0,"parameterNumber":3,"parameterNumberName":"V-component_of_WINDS"},"data":[0,0,0,-1.3213,-1.3213,-1.3219,-1.3219,-1.3225,-1.3226,0,0,0,0,0,0,0,0,0,0,0,-1.3211,-1.3211,-1.3213,-1.3213,-1.3219,-1.3219,-1.3225,-1.3226,0,0,0,0,0,0,0,0,0,0,0,-1.3211,-1.3211,-1.3211,-1.3213,-1.3219,-1.3219,-1.3225,-1.3221,0,0,0,0,0,0,0,0,0,0,-1.3215,-1.3214,-1.3211,-1.3211,-1.3213,-1.3219,-1.3219,-1.3221,-1.3221,-1.3222,0,-1.3224,0,-1.3225,-1.3226,-1.3226,0,0,0,-1.3213,-1.3214,-1.3215,-1.3211,-1.3213,-1.3219,-1.3216,-1.3221,-1.3222,-1.3223,-1.3224,-1.3224,-1.3225,-1.3226,-1.3226,-1.3234,-1.3234,0,0,-1.3212,-1.3212,-1.3215,-1.3216,-1.3216,-1.3216,-1.3216,-1.3222,-1.3223,-1.3224,-1.3225,-1.3225,-1.3226,-1.3226,-1.3234,-1.3234,0,0,0,-1.3212,-1.3212,-1.3213,-1.3215,-1.3217,-1.3216,-1.3217,-1.3222,-1.3223,-1.3225,-1.3225,-1.3226,-1.3226,-1.3234,-1.3234,-1.3236,0,0,0,-1.3211,-1.3212,-1.3213,-1.3213,-1.3217,-1.322,-1.3217,-1.3223,-1.3223,-1.3225,-1.3226,-1.3226,-1.3233,-1.3234,-1.3236,-1.3237,0,0,0,-1.3211,-1.3211,-1.3212,-1.3213,-1.3216,-1.322,-1.3221,-1.3223,-1.3223,-1.3226,-1.3226,-1.3233,-1.3234,-1.3235,-1.3237,-1.3238,0,0,0,-1.321,-1.3215,-1.3213,-1.3218,-1.3216,-1.3221,-1.3221,-1.3225,-1.3227,-1.3226,-1.3234,-1.3234,-1.3235,-1.3236,-1.3238,-1.324,-1.324,0,0,-1.3216,-1.3216,-1.3219,-1.3217,-1.3223,-1.322,-1.3226,-1.3228,-1.3229,-1.3232,-1.3232,-1.3236,-1.3237,-1.3238,-1.3245,-1.3245,0,0,0,-1.322,-1.3223,-1.3224,-1.3227,-1.3228,-1.323,-1.3231,-1.3231,-1.3234,-1.323,-1.3237,-1.3237,-1.3238,-1.3239,-1.3239,-1.324,-1.3234,-1.3234,-1.3234,-1.3229,-1.3229,-1.3233,-1.3234,-1.3236,-1.3236,-1.3238,-1.3238,-1.3238,-1.3239,-1.324,-1.3244,-1.3245,-1.3245,-1.3246,-1.3241,-1.3241,-1.3241,-1.3241,-1.3238,-1.324,-1.3238,-1.3242,-1.3241,-1.3244,-1.3244,-1.3243,-1.3245,-1.3244,-1.3244,-1.3242,-1.3246,-1.3246,-1.3241,-1.3241,-1.3241,-1.3241,-1.3241,-1.3243,-1.3244,-1.3245,-1.3247,-1.3249,-1.3248,-1.325,-1.3249,-1.3248,-1.3249,-1.3249,-1.3249,-1.3248,-1.3249,-1.3249,-1.3249,-1.3249,-1.3249,-1.3249,-1.3248,-1.3249,-1.3251,-1.3252,-1.3252,-1.3253,-1.3253,-1.3253,-1.3253,-1.3252,-1.3252,-1.3251,-1.3246,-1.3245,-1.3249,-1.3249,-1.3249,-1.3249,-1.3249,-1.3257,-1.3254,-1.3257,-1.3258,-1.3258,-1.3259,-1.3258,-1.3258,-1.3258,-1.3259,-1.3257,-1.3254,-1.3253,-1.3253,-1.3252,-1.3257,-1.3257,-1.3257,-1.3257,-1.3261,-1.326,-1.3262,-1.3263,-1.3263,-1.3262,-1.3264,-1.3263,-1.3262,-1.3261,-1.326,-1.3259,-1.3258,-1.3258,-1.3257,-1.3256,-1.3263,-1.3263,-1.3263,-1.3265,-1.3265,-1.3267,-1.3266,-1.3266,-1.3265,-1.3267,-1.3267,-1.3265,-1.3263,-1.3261,-1.3261,-1.3258,-1.3258,-1.3256,-1.3256,-1.3254,0,0]}]]